Time,TemperatureF,DewpointF,PressureIn,WindDirection,WindDirectionDegrees,WindSpeedMPH,WindSpeedGustMPH,Humidity,HourlyPrecipIn,Conditions,Clouds,dailyrainin,SoftwareType,DateUTC
2013-04-29 00:01:00,78.0,40.0,29.85,SW,219,15.0,23.0,26,0.00,,,0.00,,2013-04-29 07:01:00,
2013-04-29 00:11:00,78.0,40.0,29.85,SW,219,15.0,23.0,26,0.00,,,0.00,,2013-04-29 07:11:00,
2013-04-29 00:21:00,76.0,41.0,29.85,SW,222,15.0,21.0,28,0.00,,,0.00,,2013-04-29 07:21:00,
2013-04-29 00:31:00,76.0,40.0,29.85,SSW,213,16.0,21.0,27,0.00,,,0.00,,2013-04-29 07:31:00,
2013-04-29 00:41:00,76.0,40.0,29.85,SSW,213,16.0,21.0,27,0.00,,,0.00,,2013-04-29 07:41:00,
2013-04-29 00:52:00,76.0,41.0,29.85,SW,224,17.0,24.0,28,0.00,,,0.00,,2013-04-29 07:52:00,
2013-04-29 01:02:00,76.0,40.0,29.85,SW,221,15.0,25.0,27,0.00,,,0.00,,2013-04-29 08:02:00,
2013-04-29 01:11:00,76.0,40.0,29.85,SW,221,15.0,25.0,27,0.00,,,0.00,,2013-04-29 08:11:00,
2013-04-29 01:21:00,76.0,41.0,29.85,SW,217,16.0,23.0,28,0.00,,,0.00,,2013-04-29 08:21:00,
2013-04-29 01:31:00,76.0,41.0,29.85,SW,223,16.0,22.0,29,0.00,,,0.00,,2013-04-29 08:31:00,
2013-04-29 01:41:00,76.0,41.0,29.85,SW,223,16.0,22.0,29,0.00,,,0.00,,2013-04-29 08:41:00,
2013-04-29 01:52:00,76.0,40.0,29.85,South,180,15.0,20.0,27,0.00,,,0.00,,2013-04-29 08:52:00,
2013-04-29 02:01:00,75.0,40.0,29.85,SW,215,14.0,20.0,28,0.00,,,0.00,,2013-04-29 09:01:00,
2013-04-29 02:11:00,75.0,40.0,29.85,SW,215,14.0,20.0,28,0.00,,,0.00,,2013-04-29 09:11:00,
2013-04-29 02:21:00,74.0,41.0,29.85,SW,217,13.0,19.0,30,0.00,,,0.00,,2013-04-29 09:21:00,
2013-04-29 02:32:00,74.0,40.0,29.85,SSW,202,9.0,15.0,29,0.00,,,0.00,,2013-04-29 09:32:00,
2013-04-29 02:42:00,74.0,40.0,29.85,SSW,202,9.0,15.0,29,0.00,,,0.00,,2013-04-29 09:42:00,
2013-04-29 02:53:00,74.0,41.0,29.85,SSW,207,7.0,15.0,30,0.00,,,0.00,,2013-04-29 09:53:00,
2013-04-29 03:02:00,74.0,41.0,29.85,SSW,208,11.0,16.0,30,0.00,,,0.00,,2013-04-29 10:02:00,
2013-04-29 03:12:00,74.0,41.0,29.85,SSW,208,11.0,16.0,30,0.00,,,0.00,,2013-04-29 10:12:00,
2013-04-29 03:22:00,73.0,41.0,29.84,SSW,207,11.0,17.0,32,0.00,,,0.00,,2013-04-29 10:22:00,
2013-04-29 03:32:00,73.0,42.0,29.84,SW,217,10.0,17.0,33,0.00,,,0.00,,2013-04-29 10:32:00,
2013-04-29 03:41:00,73.0,42.0,29.84,SW,217,10.0,17.0,33,0.00,,,0.00,,2013-04-29 10:41:00,
2013-04-29 03:52:00,73.0,41.0,29.84,SW,222,11.0,16.0,32,0.00,,,0.00,,2013-04-29 10:52:00,
2013-04-29 04:02:00,73.0,41.0,29.84,SW,219,13.0,17.0,32,0.00,,,0.00,,2013-04-29 11:02:00,
2013-04-29 04:11:00,73.0,41.0,29.84,SW,219,13.0,17.0,32,0.00,,,0.00,,2013-04-29 11:11:00,
2013-04-29 04:21:00,74.0,41.0,29.84,SSW,205,13.0,18.0,30,0.00,,,0.00,,2013-04-29 11:21:00,
2013-04-29 04:31:00,73.0,40.0,29.84,SSW,208,12.0,17.0,30,0.00,,,0.00,,2013-04-29 11:31:00,
2013-04-29 04:41:00,73.0,40.0,29.84,SSW,208,12.0,17.0,30,0.00,,,0.00,,2013-04-29 11:41:00,
2013-04-29 04:52:00,73.0,41.0,29.84,SSW,200,12.0,19.0,31,0.00,,,0.00,,2013-04-29 11:52:00,
2013-04-29 05:01:00,73.0,41.0,29.84,SSW,211,9.0,16.0,31,0.00,,,0.00,,2013-04-29 12:01:00,
2013-04-29 05:11:00,73.0,41.0,29.84,SSW,211,9.0,16.0,31,0.00,,,0.00,,2013-04-29 12:11:00,
2013-04-29 05:21:00,73.0,41.0,29.85,SW,217,9.0,14.0,31,0.00,,,0.00,,2013-04-29 12:21:00,
2013-04-29 05:31:00,73.0,41.0,29.85,SW,217,11.0,15.0,31,0.00,,,0.00,,2013-04-29 12:31:00,
2013-04-29 05:41:00,73.0,41.0,29.85,SW,217,11.0,15.0,31,0.00,,,0.00,,2013-04-29 12:41:00,
2013-04-29 05:52:00,72.0,40.0,29.85,SW,220,8.0,12.0,31,0.00,,,0.00,,2013-04-29 12:52:00,
2013-04-29 06:01:00,72.0,40.0,29.84,SW,225,10.0,12.0,31,0.00,,,0.00,,2013-04-29 13:01:00,
2013-04-29 06:11:00,72.0,40.0,29.84,SW,225,10.0,12.0,31,0.00,,,0.00,,2013-04-29 13:11:00,
2013-04-29 06:21:00,72.0,41.0,29.85,SSW,211,6.0,11.0,32,0.00,,,0.00,,2013-04-29 13:21:00,
2013-04-29 06:31:00,72.0,41.0,29.85,SW,222,0.0,8.0,32,0.00,,,0.00,,2013-04-29 13:31:00,
2013-04-29 06:41:00,72.0,41.0,29.85,SW,222,0.0,8.0,32,0.00,,,0.00,,2013-04-29 13:41:00,
2013-04-29 06:52:00,71.0,40.0,29.86,WNW,291,0.0,1.0,33,0.00,,,0.00,,2013-04-29 13:52:00,
2013-04-29 07:01:00,70.0,40.0,29.86,WNW,290,0.0,0.0,33,0.00,,,0.00,,2013-04-29 14:01:00,
2013-04-29 07:11:00,70.0,40.0,29.86,WNW,290,0.0,0.0,33,0.00,,,0.00,,2013-04-29 14:11:00,
2013-04-29 07:21:00,71.0,40.0,29.87,WSW,242,0.0,3.0,33,0.00,,,0.00,,2013-04-29 14:21:00,
2013-04-29 07:31:00,71.0,41.0,29.87,WSW,242,0.0,3.0,34,0.00,,,0.00,,2013-04-29 14:31:00,
2013-04-29 07:42:00,71.0,41.0,29.87,WSW,242,0.0,3.0,34,0.00,,,0.00,,2013-04-29 14:42:00,
2013-04-29 07:52:00,72.0,42.0,29.87,WSW,242,0.0,2.0,34,0.00,,,0.00,,2013-04-29 14:52:00,
2013-04-29 08:01:00,73.0,41.0,29.87,SSW,208,5.0,11.0,32,0.00,,,0.00,,2013-04-29 15:01:00,
2013-04-29 08:12:00,73.0,41.0,29.87,SSW,208,5.0,11.0,32,0.00,,,0.00,,2013-04-29 15:12:00,
2013-04-29 08:21:00,75.0,41.0,29.88,WSW,242,2.0,11.0,30,0.00,,,0.00,,2013-04-29 15:21:00,
2013-04-29 08:33:00,76.0,42.0,29.88,WSW,244,2.0,10.0,30,0.00,,,0.00,,2013-04-29 15:33:00,
2013-04-29 08:53:00,78.0,39.0,29.87,West,259,3.0,8.0,25,0.00,,,0.00,,2013-04-29 15:53:00,
2013-04-29 09:02:00,78.0,39.0,29.87,West,265,6.0,9.0,25,0.00,,,0.00,,2013-04-29 16:02:00,
2013-04-29 09:12:00,78.0,39.0,29.87,West,265,6.0,9.0,25,0.00,,,0.00,,2013-04-29 16:12:00,
2013-04-29 09:23:00,81.0,39.0,29.87,West,281,6.0,9.0,22,0.00,,,0.00,,2013-04-29 16:23:00,
2013-04-29 09:32:00,82.0,38.0,29.87,WNW,296,2.0,7.0,21,0.00,,,0.00,,2013-04-29 16:32:00,
2013-04-29 09:42:00,82.0,38.0,29.87,WNW,296,2.0,7.0,21,0.00,,,0.00,,2013-04-29 16:42:00,
2013-04-29 09:52:00,85.0,38.0,29.87,WNW,302,2.0,4.0,19,0.00,,,0.00,,2013-04-29 16:52:00,
2013-04-29 10:02:00,86.0,38.0,29.87,WNW,302,0.0,3.0,18,0.00,,,0.00,,2013-04-29 17:02:00,
2013-04-29 10:22:00,88.0,38.0,29.87,WNW,302,2.0,4.0,17,0.00,,,0.00,,2013-04-29 17:22:00,
2013-04-29 10:31:00,88.0,38.0,29.87,WNW,302,0.0,2.0,17,0.00,,,0.00,,2013-04-29 17:31:00,
2013-04-29 10:42:00,88.0,38.0,29.87,WNW,302,0.0,2.0,17,0.00,,,0.00,,2013-04-29 17:42:00,
2013-04-29 10:52:00,90.0,38.0,29.87,WNW,302,1.0,4.0,16,0.00,,,0.00,,2013-04-29 17:52:00,
2013-04-29 11:01:00,91.0,39.0,29.87,East,82,2.0,6.0,16,0.00,,,0.00,,2013-04-29 18:01:00,
2013-04-29 11:22:00,91.0,37.0,29.86,NE,51,1.0,4.0,15,0.00,,,0.00,,2013-04-29 18:22:00,
2013-04-29 11:31:00,92.0,38.0,29.86,NNE,21,1.0,9.0,15,0.00,,,0.00,,2013-04-29 18:31:00,
2013-04-29 11:41:00,92.0,38.0,29.86,NNE,21,1.0,9.0,15,0.00,,,0.00,,2013-04-29 18:41:00,
2013-04-29 11:52:00,93.0,37.0,29.85,NE,46,4.0,7.0,14,0.00,,,0.00,,2013-04-29 18:52:00,
2013-04-29 12:01:00,94.0,38.0,29.85,ENE,64,5.0,7.0,14,0.00,,,0.00,,2013-04-29 19:01:00,
2013-04-29 12:21:00,95.0,38.0,29.84,ENE,69,5.0,11.0,14,0.00,,,0.00,,2013-04-29 19:21:00,
2013-04-29 12:31:00,94.0,38.0,29.84,ENE,76,0.0,10.0,14,0.00,,,0.00,,2013-04-29 19:31:00,
2013-04-29 12:52:00,96.0,39.0,29.82,NE,37,5.0,12.0,14,0.00,,,0.00,,2013-04-29 19:52:00,
2013-04-29 13:01:00,96.0,39.0,29.82,NNE,28,3.0,5.0,14,0.00,,,0.00,,2013-04-29 20:01:00,
2013-04-29 13:21:00,96.0,37.0,29.80,SSE,167,6.0,10.0,13,0.00,,,0.00,,2013-04-29 20:21:00,
2013-04-29 13:32:00,97.0,36.0,29.80,SSE,163,7.0,11.0,12,0.00,,,0.00,,2013-04-29 20:32:00,
2013-04-29 13:52:00,98.0,37.0,29.79,SE,146,0.0,12.0,12,0.00,,,0.00,,2013-04-29 20:52:00,
2013-04-29 14:01:00,97.0,36.0,29.79,ESE,121,3.0,12.0,12,0.00,,,0.00,,2013-04-29 21:01:00,
2013-04-29 14:21:00,98.0,37.0,29.78,SSW,196,12.0,15.0,12,0.00,,,0.00,,2013-04-29 21:21:00,
2013-04-29 14:32:00,99.0,37.0,29.77,SW,228,10.0,19.0,12,0.00,,,0.00,,2013-04-29 21:32:00,
2013-04-29 14:53:00,99.0,33.0,29.76,SSW,202,7.0,19.0,10,0.00,,,0.00,,2013-04-29 21:53:00,
2013-04-29 15:02:00,99.0,30.0,29.75,SSW,192,7.0,24.0,9,0.00,,,0.00,,2013-04-29 22:02:00,
2013-04-29 15:23:00,98.0,30.0,29.74,SSE,160,7.0,19.0,9,0.00,,,0.00,,2013-04-29 22:23:00,
2013-04-29 15:32:00,99.0,33.0,29.73,South,176,14.0,17.0,10,0.00,,,0.00,,2013-04-29 22:32:00,
2013-04-29 15:52:00,99.0,30.0,29.72,SSW,199,13.0,18.0,9,0.00,,,0.00,,2013-04-29 22:52:00,
2013-04-29 16:02:00,99.0,33.0,29.72,SE,139,10.0,22.0,10,0.00,,,0.00,,2013-04-29 23:02:00,
2013-04-29 16:22:00,99.0,30.0,29.71,SSE,165,6.0,19.0,9,0.00,,,0.00,,2013-04-29 23:22:00,
2013-04-29 16:31:00,99.0,30.0,29.70,SSE,167,16.0,20.0,9,0.00,,,0.00,,2013-04-29 23:31:00,
2013-04-29 16:52:00,98.0,32.0,29.70,SW,219,18.0,27.0,10,0.00,,,0.00,,2013-04-29 23:52:00,
2013-04-29 17:01:00,98.0,39.0,29.69,SSE,148,14.0,22.0,13,0.00,,,0.00,,2013-04-30 00:01:00,
2013-04-29 17:21:00,97.0,40.0,29.69,SSW,203,16.0,22.0,14,0.00,,,0.00,,2013-04-30 00:21:00,
2013-04-29 17:31:00,97.0,40.0,29.68,SW,229,18.0,25.0,14,0.00,,,0.00,,2013-04-30 00:31:00,
2013-04-29 17:52:00,96.0,41.0,29.67,SW,219,18.0,26.0,15,0.00,,,0.00,,2013-04-30 00:52:00,
2013-04-29 18:01:00,95.0,42.0,29.67,SW,227,8.0,25.0,16,0.00,,,0.00,,2013-04-30 01:01:00,
2013-04-29 18:21:00,95.0,40.0,29.67,West,276,17.0,25.0,15,0.00,,,0.00,,2013-04-30 01:21:00,
2013-04-29 21:52:00,80.0,40.0,29.69,WSW,248,14.0,21.0,24,0.00,,,0.00,,2013-04-30 04:52:00,
2013-04-29 22:02:00,80.0,39.0,29.69,SW,225,9.0,22.0,23,0.00,,,0.00,,2013-04-30 05:02:00,
2013-04-29 22:11:00,80.0,39.0,29.69,SW,225,9.0,22.0,23,0.00,,,0.00,,2013-04-30 05:11:00,
2013-04-29 22:21:00,79.0,40.0,29.68,SW,223,15.0,25.0,25,0.00,,,0.00,,2013-04-30 05:21:00,
2013-04-29 22:31:00,79.0,40.0,29.68,WSW,237,16.0,24.0,25,0.00,,,0.00,,2013-04-30 05:31:00,
2013-04-29 22:42:00,79.0,40.0,29.68,WSW,237,16.0,24.0,25,0.00,,,0.00,,2013-04-30 05:42:00,
2013-04-29 23:01:00,78.0,40.0,29.68,WSW,255,15.0,24.0,26,0.00,,,0.00,,2013-04-30 06:01:00,
2013-04-29 23:11:00,78.0,41.0,29.68,WSW,237,17.0,23.0,27,0.00,,,0.00,,2013-04-30 06:11:00,
2013-04-29 23:21:00,78.0,41.0,29.68,WSW,237,17.0,23.0,27,0.00,,,0.00,,2013-04-30 06:21:00,
2013-04-29 23:31:00,78.0,41.0,29.68,SSW,211,14.0,22.0,27,0.00,,,0.00,,2013-04-30 06:31:00,
2013-04-29 23:41:00,78.0,41.0,29.68,SSW,211,14.0,22.0,27,0.00,,,0.00,,2013-04-30 06:41:00,
2013-04-29 23:52:00,77.0,41.0,29.68,SW,216,17.0,21.0,28,0.00,,,0.00,,2013-04-30 06:52:00,